Osceola Municipal, IA

11:29 AM CST on November 18, 2017 (GMT -0600)
Osceola Municipal

Weather History for KI75 - May, 2013

Change the Weather History Date:

Friday, May 24, 2013

  Actual Average (KCNC) Record (KCNC)
Temperature  
Mean Temperature 56 °F -  
Max Temperature 69 °F 74 °F 91 °F (1967)
Min Temperature 44 °F 52 °F 35 °F (1979)
Degree Days  
Heating Degree Days 8    
Growing Degree Days 6 (Base 50)    
Moisture  
Dew Point 45 °F    
Average Humidity 63    
Maximum Humidity 86    
Minimum Humidity 39    
Precipitation  
Precipitation 0.01 in - - ()
Sea Level Pressure  
Sea Level Pressure 30.28 in    
Wind  
Wind Speed 8 mph (ESE)    
Max Wind Speed 18 mph    
Max Gust Speed 24 mph    
Visibility 10 miles    
Events Rain    
Averages and records for this station are not official NWS values.
T = Trace of Precipitation, MM = Missing Value Source: NWS Daily Summary

Daily Weather History Graph

Daily Weather History Graph

Search for Another Location

Airport or City:

Trip Planner

Search our weather history database for the weather conditions in past years. The results will help you decide how hot, cold, wet, or windy it might be!

Date:

Astronomy

May. 24, 2013 Rise Set
Actual Time 5:49 AM CDT 8:34 PM CDT
Civil Twilight 5:16 AM CDT 9:06 PM CDT
Nautical Twilight 4:36 AM CDT 9:47 PM CDT
Astronomical Twilight 3:50 AM CDT 10:33 PM CDT
Moon 8:17 PM CDT (5/24) 5:22 AM CDT (5/24)
Length of Visible Light 15h 49m
Length of Day
14h 45m
Full, 100% of the Moon is Illuminated
May 24
Full
May 24
Full
May 31
Last Quarter
Jun 8
New
Jun 16
First Quarter

Hourly Weather History & Observations

Time (CDT) Temp. Windchill Dew Point Humidity Pressure Visibility Wind Dir Wind Speed Gust Speed Precip Events Conditions
12:15 AM 52.3 °F - 44.1 °F 73% 30.27 in 10.0 mi NE 4.6 mph - N/A   Clear
12:35 AM 51.4 °F - 43.7 °F 75% 30.28 in 10.0 mi NE 4.6 mph - N/A   Clear
12:55 AM 49.3 °F - 43.7 °F 81% 30.28 in 10.0 mi NE 4.6 mph - N/A   Clear
1:15 AM 49.3 °F - 43.7 °F 81% 30.28 in 10.0 mi NE 5.8 mph - N/A   Clear
1:35 AM 49.5 °F - 43.3 °F 79% 30.29 in 10.0 mi NE 4.6 mph - N/A   Clear
1:55 AM 49.1 °F - 43.5 °F 81% 30.28 in 10.0 mi NE 5.8 mph - N/A   Clear
2:15 AM 48.7 °F - 43.2 °F 81% 30.28 in 10.0 mi NE 5.8 mph - N/A   Clear
2:35 AM 49.3 °F - 43.0 °F 79% 30.28 in 10.0 mi ENE 5.8 mph - N/A   Clear
2:55 AM 49.3 °F - 42.8 °F 78% 30.29 in 10.0 mi ENE 4.6 mph - N/A   Clear
3:15 AM 48.2 °F - 42.4 °F 80% 30.29 in 10.0 mi NE 5.8 mph - N/A   Clear
3:35 AM 48.4 °F - 42.1 °F 79% 30.30 in 10.0 mi ENE 5.8 mph - N/A   Clear
3:55 AM 47.8 °F - 41.9 °F 80% 30.30 in 10.0 mi ENE 5.8 mph - N/A   Clear
4:15 AM 47.8 °F - 41.5 °F 79% 30.30 in 10.0 mi ENE 3.5 mph - N/A   Clear
4:35 AM 47.5 °F - 41.4 °F 79% 30.30 in 10.0 mi ENE 3.5 mph - N/A   Clear
4:55 AM 46.8 °F - 41.4 °F 81% 30.31 in 10.0 mi ENE 3.5 mph - N/A   Clear
5:15 AM 45.9 °F 44.6 °F 40.8 °F 83% 30.32 in 10.0 mi East 3.5 mph - N/A   Clear
5:35 AM 45.0 °F 42.6 °F 40.6 °F 85% 30.32 in 10.0 mi ENE 4.6 mph - N/A   Clear
5:55 AM 44.8 °F 43.3 °F 40.5 °F 85% 30.33 in 10.0 mi East 3.5 mph - N/A   Clear
6:15 AM 45.0 °F 42.6 °F 41.0 °F 86% 30.32 in 10.0 mi East 4.6 mph - N/A   Clear
6:35 AM 46.0 °F 42.5 °F 41.4 °F 84% 30.33 in 10.0 mi East 6.9 mph - N/A   Clear
6:55 AM 47.8 °F - 41.9 °F 80% 30.33 in 10.0 mi East 6.9 mph - N/A   Clear
7:15 AM 49.3 °F - 42.8 °F 78% 30.35 in 10.0 mi ESE 5.8 mph - N/A   Clear
7:35 AM 50.4 °F - 44.2 °F 80% 30.34 in 10.0 mi ESE 6.9 mph - N/A   Clear
7:55 AM 52.7 °F - 46.6 °F 80% 30.36 in 10.0 mi SE 8.1 mph - N/A   Clear
8:15 AM 54.3 °F - 48.0 °F 79% 30.36 in 10.0 mi SSE 10.4 mph - N/A   Clear
8:35 AM 55.4 °F - 48.9 °F 79% 30.35 in 10.0 mi SSE 13.8 mph - N/A   Clear
8:55 AM 57.0 °F - 49.5 °F 76% 30.36 in 10.0 mi SSE 12.7 mph - N/A   Clear
9:15 AM 58.5 °F - 50.2 °F 74% 30.36 in 10.0 mi SSE 13.8 mph - N/A   Clear
9:35 AM 60.1 °F - 50.5 °F 71% 30.36 in 10.0 mi SE 12.7 mph - N/A   Clear
9:55 AM 60.8 °F - 49.5 °F 66% 30.36 in 10.0 mi SSE 15.0 mph - N/A   Clear
10:15 AM 62.1 °F - 49.8 °F 64% 30.35 in 10.0 mi SE 12.7 mph - N/A   Clear
10:35 AM 63.3 °F - 48.7 °F 59% 30.34 in 10.0 mi SE 11.5 mph 19.6 mph N/A   Scattered Clouds
10:55 AM 63.3 °F - 47.3 °F 56% 30.34 in 10.0 mi ESE 11.5 mph - N/A   Mostly Cloudy
11:15 AM 62.8 °F - 48.0 °F 59% 30.34 in 10.0 mi SE 11.5 mph - N/A   Mostly Cloudy
11:35 AM 64.0 °F - 48.7 °F 57% 30.34 in 10.0 mi SE 13.8 mph 19.6 mph N/A   Scattered Clouds
11:55 AM 64.4 °F - 48.2 °F 56% 30.33 in 10.0 mi SSE 12.7 mph 20.7 mph N/A   Scattered Clouds
12:15 PM 64.6 °F - 47.5 °F 54% 30.33 in 10.0 mi ESE 10.4 mph 21.9 mph N/A   Scattered Clouds
12:35 PM 65.3 °F - 48.2 °F 54% 30.33 in 10.0 mi SE 13.8 mph 19.6 mph N/A   Scattered Clouds
12:55 PM 65.8 °F - 47.7 °F 52% 30.33 in 10.0 mi SE 13.8 mph 24.2 mph N/A   Scattered Clouds
1:15 PM 65.8 °F - 47.1 °F 51% 30.31 in 10.0 mi SE 16.1 mph 23.0 mph N/A   Scattered Clouds
1:35 PM 66.7 °F - 47.1 °F 49% 30.31 in 10.0 mi SE 12.7 mph 21.9 mph N/A   Clear
1:55 PM 66.9 °F - 47.3 °F 49% 30.30 in 10.0 mi SE 18.4 mph - N/A   Clear
2:15 PM 67.1 °F - 46.0 °F 47% 30.30 in 10.0 mi SSE 13.8 mph - N/A   Clear
2:35 PM 67.6 °F - 45.9 °F 46% 30.29 in 10.0 mi ESE 13.8 mph 20.7 mph N/A   Clear
2:55 PM 67.8 °F - 45.3 °F 44% 30.28 in 10.0 mi SE 13.8 mph 23.0 mph N/A   Clear
3:15 PM 68.2 °F - 44.6 °F 43% 30.28 in 10.0 mi SE 16.1 mph 20.7 mph N/A   Clear
3:35 PM 68.2 °F - 44.4 °F 42% 30.26 in 10.0 mi SE 11.5 mph 21.9 mph N/A   Clear
3:55 PM 68.5 °F - 43.9 °F 41% 30.26 in 10.0 mi SSE 15.0 mph - N/A   Clear
4:15 PM 69.1 °F - 43.5 °F 40% 30.25 in 10.0 mi SE 16.1 mph 20.7 mph N/A   Clear
4:35 PM 68.9 °F - 43.7 °F 40% 30.24 in 10.0 mi SE 15.0 mph 23.0 mph N/A   Clear
4:55 PM 68.7 °F - 43.9 °F 41% 30.24 in 10.0 mi SSE 17.3 mph - N/A   Clear
5:15 PM 68.7 °F - 42.6 °F 39% 30.23 in 10.0 mi SSE 13.8 mph - N/A   Clear
5:35 PM 68.4 °F - 44.4 °F 42% 30.23 in 10.0 mi SE 13.8 mph - N/A   Clear
5:55 PM 68.7 °F - 45.0 °F 42% 30.22 in 10.0 mi SSE 15.0 mph - N/A   Clear
6:15 PM 68.4 °F - 44.6 °F 42% 30.21 in 10.0 mi SSE 12.7 mph - N/A   Clear
6:35 PM 66.4 °F - 44.6 °F 45% 30.21 in 10.0 mi SSE 11.5 mph - N/A   Clear
6:55 PM 66.0 °F - 44.8 °F 46% 30.19 in 10.0 mi SE 12.7 mph - N/A   Mostly Cloudy
7:15 PM 65.3 °F - 44.2 °F 46% 30.19 in 10.0 mi SE 9.2 mph 17.3 mph N/A   Overcast
7:35 PM 64.4 °F - 44.2 °F 48% 30.19 in 10.0 mi SE 11.5 mph - N/A   Scattered Clouds
7:55 PM 63.7 °F - 44.8 °F 50% 30.18 in 10.0 mi ESE 10.4 mph - N/A   Clear
8:15 PM 63.0 °F - 45.5 °F 53% 30.18 in 10.0 mi ESE 10.4 mph - N/A   Mostly Cloudy
8:35 PM 62.6 °F - 45.3 °F 53% 30.18 in 10.0 mi SE 9.2 mph - N/A   Overcast
8:55 PM 62.1 °F - 45.3 °F 54% 30.17 in 10.0 mi ESE 11.5 mph 18.4 mph N/A Rain Rain
9:15 PM 59.9 °F - 46.9 °F 62% 30.16 in 10.0 mi ESE 12.7 mph - 0.01 in   Overcast
9:35 PM 59.5 °F - 46.8 °F 63% 30.21 in 10.0 mi ENE 6.9 mph - 0.01 in   Mostly Cloudy
9:55 PM 59.0 °F - 46.8 °F 64% 30.21 in 10.0 mi ESE 9.2 mph - 0.01 in   Scattered Clouds
10:15 PM 59.2 °F - 45.7 °F 61% 30.21 in 10.0 mi ESE 8.1 mph - N/A   Mostly Cloudy
10:35 PM 58.3 °F - 45.1 °F 62% 30.21 in 10.0 mi ESE 12.7 mph 18.4 mph N/A   Mostly Cloudy
10:55 PM 58.8 °F - 43.3 °F 56% 30.22 in 10.0 mi ESE 12.7 mph - N/A   Scattered Clouds
11:15 PM 58.1 °F - 43.3 °F 58% 30.21 in 10.0 mi ESE 10.4 mph - N/A   Clear
11:35 PM 57.9 °F - 43.2 °F 58% 30.20 in 10.0 mi ESE 11.5 mph 18.4 mph N/A   Clear
11:55 PM 57.4 °F - 43.5 °F 60% 30.22 in 10.0 mi SE 8.1 mph - N/A   Clear